User: anonymous   Login
Location: Ikejouine
(32.5142°N, 5.4699°W)
Time: 15:46:40
(UTC+00:00)
Language:

Cosmos 1758 Rocket - Orbit

View from above orbital plane
View from above orbital plane
View from above satellite
View from above satellite

Ground track
Ground track

The orbit data is extracted from the following two-line orbital elements,

1 16792U 86046B   21164.17067761  .00000098  00000-0  89403-5 0  9994
2 16792  82.4833 271.2747 0024419 171.7879 188.3741 14.83286873890846
Epoch (UTC): 13 June 2021 04:05:46
Eccentricity: 0.0024419
inclination: 82.4833°
perigee height: 602 km
apogee height: 636 km
right ascension of ascending node: 271.2747°
argument of perigee: 171.7879°
revolutions per day: 14.83286873
mean anomaly at epoch: 188.3741°
orbit number at epoch: 89084

The dashed part of the orbit path shows where the satellite is in the earth's shadow,  

DLR